DLH6065 EINN-EDDM

Flight info

Callsign DLH6065
Flight time 2h 20m
Altitude 35000
Route ABAGU3A ABAGU DCT ENJEX DCT AVZAC DCT ICOSA DCT RUHUN DCT UNZIB DCT NUCHU L18 MID UL612 VEULE DCT TEPRI UN491 POGZI DCT GELTA DCT LUVAL DCT BEGAR DCT TRA DCT NUNRI T103 BETOS BETOS1A
Aircraft A320/M-SDE3FGHIRWY/LB1

Departure

Time 2026-04-30 19:12
Airport Shannon Airport (EINN)

Arrival

Time 2026-04-30 21:32
Airport Munich Airport (EDDM)
Time Latitude Longitude Altitude Speed Heading
2026-04-30 18:19 52.69361 -8.91959 24 ft 0 kts 185°
2026-04-30 18:53 52.69370 -8.91958 22 ft 2 kts 185°
2026-04-30 18:53 52.69387 -8.91955 24 ft 2 kts 185°
2026-04-30 18:53 52.69405 -8.91953 22 ft 2 kts 185°
2026-04-30 18:53 52.69422 -8.91950 21 ft 3 kts 185°
2026-04-30 18:54 52.69438 -8.91943 21 ft 2 kts 243°
2026-04-30 18:54 52.69442 -8.91924 23 ft 0 kts 289°
2026-04-30 18:55 52.69462 -8.92030 22 ft 4 kts 283°
2026-04-30 18:55 52.69467 -8.92067 21 ft 0 kts 283°
2026-04-30 18:56 52.69469 -8.92085 21 ft 4 kts 284°
2026-04-30 18:56 52.69480 -8.92150 21 ft 7 kts 287°
2026-04-30 18:57 52.69498 -8.92229 21 ft 0 kts 291°
2026-04-30 18:57 52.69499 -8.92232 21 ft 1 kts 292°
2026-04-30 18:58 52.69545 -8.92366 22 ft 9 kts 308°
2026-04-30 18:58 52.69585 -8.92437 22 ft 8 kts 315°
2026-04-30 18:58 52.69620 -8.92492 22 ft 6 kts 316°
2026-04-30 18:59 52.69700 -8.92620 22 ft 16 kts 315°
2026-04-30 19:00 52.69850 -8.92864 22 ft 0 kts 315°
2026-04-30 19:08 52.69854 -8.92870 22 ft 4 kts 316°
2026-04-30 19:08 52.69893 -8.93128 24 ft 14 kts 232°
2026-04-30 19:08 52.69814 -8.93295 25 ft 26 kts 232°
2026-04-30 19:09 52.69532 -8.93890 30 ft 33 kts 232°
2026-04-30 19:09 52.69404 -8.94162 34 ft 25 kts 232°
2026-04-30 19:09 52.69346 -8.94332 34 ft 13 kts 219°
2026-04-30 19:10 52.69387 -8.94195 33 ft 12 kts 41°
2026-04-30 19:10 52.69393 -8.94184 34 ft 0 kts 49°
2026-04-30 19:11 52.69433 -8.94101 33 ft 37 kts 52°
2026-04-30 19:11 52.70307 -8.92273 23 ft 154 kts 56°
2026-04-30 19:11 52.70962 -8.90732 324 ft 173 kts 53°
2026-04-30 19:12 52.71629 -8.89113 1079 ft 170 kts 74°
2026-04-30 19:12 52.71616 -8.87181 1588 ft 176 kts 107°
2026-04-30 19:12 52.71255 -8.85123 1946 ft 196 kts 111°
2026-04-30 19:13 52.70345 -8.80483 3022 ft 225 kts 109°
2026-04-30 19:13 52.69414 -8.75359 4426 ft 239 kts 108°
2026-04-30 19:13 52.68948 -8.72681 4912 ft 256 kts 108°
2026-04-30 19:14 52.68429 -8.69691 4980 ft 280 kts 107°
2026-04-30 19:14 52.67920 -8.66690 4978 ft 265 kts 107°
2026-04-30 19:14 52.67433 -8.63775 5082 ft 265 kts 107°
2026-04-30 19:14 52.66941 -8.60835 5850 ft 266 kts 108°
2026-04-30 19:15 52.66446 -8.57884 6735 ft 268 kts 109°
2026-04-30 19:15 52.65446 -8.51929 8418 ft 269 kts 110°
2026-04-30 19:15 52.64945 -8.48953 9254 ft 270 kts 110°
2026-04-30 19:16 52.64445 -8.45993 10049 ft 273 kts 110°
2026-04-30 19:16 52.63914 -8.42897 10431 ft 291 kts 110°
2026-04-30 19:16 52.62717 -8.35971 10764 ft 337 kts 110°
2026-04-30 19:17 52.62061 -8.32147 11051 ft 353 kts 109°
2026-04-30 19:17 52.60723 -8.24260 12309 ft 360 kts 109°
2026-04-30 19:17 52.60052 -8.20315 12975 ft 363 kts 110°
2026-04-30 19:18 52.58894 -8.13575 14053 ft 368 kts 110°
2026-04-30 19:18 52.57957 -8.08175 14801 ft 371 kts 110°
2026-04-30 19:18 52.57242 -8.04057 15358 ft 374 kts 110°
2026-04-30 19:19 52.56528 -7.99939 15873 ft 376 kts 110°
2026-04-30 19:19 52.55816 -7.95834 16377 ft 379 kts 110°
2026-04-30 19:19 52.54347 -7.87412 17410 ft 384 kts 110°
2026-04-30 19:20 52.53602 -7.83175 17925 ft 387 kts 110°
2026-04-30 19:20 52.52850 -7.78904 18417 ft 390 kts 110°
2026-04-30 19:20 52.51335 -7.70342 19294 ft 394 kts 111°
2026-04-30 19:21 52.50565 -7.66020 19741 ft 396 kts 112°
2026-04-30 19:21 52.48455 -7.57705 20588 ft 396 kts 118°
2026-04-30 19:22 52.46202 -7.49392 21413 ft 400 kts 118°
2026-04-30 19:22 52.42759 -7.36724 22452 ft 410 kts 118°
2026-04-30 19:23 52.39353 -7.24238 23529 ft 416 kts 118°
2026-04-30 19:24 52.37431 -7.17243 24030 ft 419 kts 118°
2026-04-30 19:24 52.36233 -7.12893 24329 ft 421 kts 118°
2026-04-30 19:24 52.35026 -7.08504 24625 ft 423 kts 118°
2026-04-30 19:25 52.30068 -6.90877 25662 ft 431 kts 118°
2026-04-30 19:26 52.27620 -6.81879 26110 ft 436 kts 118°
2026-04-30 19:26 52.25101 -6.72764 26609 ft 440 kts 118°
2026-04-30 19:26 52.23829 -6.68207 26860 ft 441 kts 118°
2026-04-30 19:27 52.21281 -6.59103 27532 ft 440 kts 119°
2026-04-30 19:27 52.18724 -6.50097 28301 ft 437 kts 119°
2026-04-30 19:28 52.17441 -6.45592 28658 ft 437 kts 119°
2026-04-30 19:28 52.14891 -6.36629 29332 ft 436 kts 119°
2026-04-30 19:29 52.12344 -6.27671 30064 ft 435 kts 119°
2026-04-30 19:29 52.11073 -6.23213 30347 ft 435 kts 119°
2026-04-30 19:30 52.07233 -6.09815 31157 ft 435 kts 119°
2026-04-30 19:30 52.04664 -6.00892 31733 ft 435 kts 119°
2026-04-30 19:31 52.02146 -5.91955 32280 ft 435 kts 118°
2026-04-30 19:31 52.00915 -5.87542 32535 ft 435 kts 118°
2026-04-30 19:31 51.98408 -5.78598 33065 ft 435 kts 118°
2026-04-30 19:32 51.97134 -5.74081 33324 ft 435 kts 118°
2026-04-30 19:32 51.95884 -5.69669 33590 ft 435 kts 118°
2026-04-30 19:32 51.94615 -5.65214 33859 ft 435 kts 118°
2026-04-30 19:32 51.93752 -5.62192 34039 ft 435 kts 118°
2026-04-30 19:33 51.92063 -5.56286 34353 ft 435 kts 118°
2026-04-30 19:33 51.90787 -5.51840 34573 ft 436 kts 118°
2026-04-30 19:33 51.89510 -5.47398 34790 ft 436 kts 118°
2026-04-30 19:33 51.88227 -5.42928 35005 ft 436 kts 118°
2026-04-30 19:34 51.86084 -5.35472 35097 ft 440 kts 118°
2026-04-30 19:35 51.82188 -5.22008 35094 ft 440 kts 118°
2026-04-30 19:35 51.79587 -5.13025 35095 ft 440 kts 118°
2026-04-30 19:36 51.77378 -5.03782 35099 ft 445 kts 105°
2026-04-30 19:36 51.75636 -4.89009 35096 ft 446 kts 104°
2026-04-30 19:37 51.74443 -4.79162 35088 ft 446 kts 104°
2026-04-30 19:37 51.73268 -4.69428 35089 ft 445 kts 104°
2026-04-30 19:38 51.72092 -4.59686 35094 ft 445 kts 104°
2026-04-30 19:38 51.70876 -4.49731 35093 ft 445 kts 104°
2026-04-30 19:39 51.69668 -4.39946 35092 ft 446 kts 104°
2026-04-30 19:39 51.68450 -4.30145 35078 ft 446 kts 104°
2026-04-30 19:40 51.67236 -4.20335 35090 ft 446 kts 104°
2026-04-30 19:40 51.66011 -4.10547 35096 ft 445 kts 104°
2026-04-30 19:41 51.64773 -4.00806 35106 ft 445 kts 104°
2026-04-30 19:41 51.63514 -3.91009 35109 ft 445 kts 105°
2026-04-30 19:42 51.62258 -3.81237 35099 ft 446 kts 104°
2026-04-30 19:42 51.61003 -3.71466 35109 ft 446 kts 104°
2026-04-30 19:43 51.59741 -3.61743 35123 ft 446 kts 105°
2026-04-30 19:44 51.58708 -3.46786 35130 ft 449 kts 98°
2026-04-30 19:44 51.58123 -3.36775 35113 ft 449 kts 98°
2026-04-30 19:45 51.57524 -3.26762 35116 ft 449 kts 98°
2026-04-30 19:45 51.56922 -3.16814 35125 ft 449 kts 98°
2026-04-30 19:46 51.56309 -3.06715 35218 ft 449 kts 98°
2026-04-30 19:46 51.55671 -2.96402 35221 ft 449 kts 98°
2026-04-30 19:47 51.55070 -2.86786 35216 ft 449 kts 98°
2026-04-30 19:47 51.54424 -2.76752 35142 ft 449 kts 99°
2026-04-30 19:48 51.53779 -2.66847 35147 ft 448 kts 99°
2026-04-30 19:48 51.53105 -2.56519 35151 ft 448 kts 99°
2026-04-30 19:49 51.52468 -2.46912 35154 ft 448 kts 99°
2026-04-30 19:49 51.51462 -2.31992 35149 ft 447 kts 98°
2026-04-30 19:50 51.50779 -2.22041 35164 ft 447 kts 99°
2026-04-30 19:50 51.50087 -2.12118 35162 ft 447 kts 99°
2026-04-30 19:51 51.49390 -2.02245 35164 ft 447 kts 99°
2026-04-30 19:51 51.48686 -1.92341 35165 ft 447 kts 99°
2026-04-30 19:52 51.47972 -1.82415 35183 ft 446 kts 99°
2026-04-30 19:52 51.47248 -1.72543 35195 ft 444 kts 100°
2026-04-30 19:53 51.45563 -1.63108 35192 ft 437 kts 117°
2026-04-30 19:53 51.42953 -1.54300 35192 ft 437 kts 117°
2026-04-30 19:54 51.40364 -1.45466 35192 ft 437 kts 117°
2026-04-30 19:54 51.37801 -1.36720 35199 ft 436 kts 117°
2026-04-30 19:55 51.35208 -1.27975 35203 ft 434 kts 118°
2026-04-30 19:55 51.32266 -1.19476 35205 ft 431 kts 125°
2026-04-30 19:56 51.28880 -1.11615 35199 ft 431 kts 128°
2026-04-30 19:56 51.25244 -1.03991 35199 ft 431 kts 129°
2026-04-30 19:57 51.21557 -0.96403 35195 ft 431 kts 129°
2026-04-30 19:57 51.17943 -0.88851 35190 ft 431 kts 128°
2026-04-30 19:58 51.14334 -0.81244 35197 ft 430 kts 128°
2026-04-30 19:58 51.10721 -0.73641 35201 ft 430 kts 129°
2026-04-30 19:59 51.07090 -0.66044 35201 ft 430 kts 130°
2026-04-30 19:59 51.02746 -0.59645 35188 ft 426 kts 147°
2026-04-30 20:00 51.00275 -0.57045 35182 ft 426 kts 147°
2026-04-30 20:00 50.95321 -0.51787 35177 ft 426 kts 147°
2026-04-30 20:01 50.87934 -0.43903 35170 ft 427 kts 147°
2026-04-30 20:01 50.83013 -0.38675 35167 ft 427 kts 146°
2026-04-30 20:02 50.76399 -0.31677 35163 ft 427 kts 147°
2026-04-30 20:03 50.68981 -0.23899 35167 ft 428 kts 147°
2026-04-30 20:03 50.64018 -0.18677 35172 ft 428 kts 147°
2026-04-30 20:04 50.59056 -0.13477 35169 ft 429 kts 147°
2026-04-30 20:05 50.51584 -0.05678 35169 ft 429 kts 147°
2026-04-30 20:05 50.44100 0.02087 35158 ft 429 kts 147°
2026-04-30 20:06 50.39115 0.07251 35158 ft 429 kts 147°
2026-04-30 20:06 50.34123 0.12402 35162 ft 429 kts 147°
2026-04-30 20:07 50.29152 0.17518 35155 ft 429 kts 147°
2026-04-30 20:08 50.21326 0.25565 35158 ft 430 kts 147°
2026-04-30 20:08 50.16648 0.30362 35161 ft 430 kts 147°
2026-04-30 20:09 50.11627 0.35529 35151 ft 431 kts 147°
2026-04-30 20:09 50.04141 0.43197 35157 ft 431 kts 147°
2026-04-30 20:10 49.96591 0.50913 35169 ft 431 kts 147°
2026-04-30 20:11 49.89057 0.58546 35162 ft 432 kts 147°
2026-04-30 20:11 49.84305 0.64232 35159 ft 432 kts 133°
2026-04-30 20:12 49.78248 0.74635 35163 ft 433 kts 133°
2026-04-30 20:13 49.74168 0.81528 35169 ft 433 kts 133°
2026-04-30 20:13 49.70086 0.88391 35166 ft 434 kts 133°
2026-04-30 20:14 49.65991 0.95261 35173 ft 434 kts 133°
2026-04-30 20:14 49.61920 1.02101 35181 ft 434 kts 133°
2026-04-30 20:15 49.57833 1.08953 35187 ft 434 kts 133°
2026-04-30 20:15 49.53729 1.15803 35192 ft 433 kts 133°
2026-04-30 20:16 49.49652 1.22589 35194 ft 433 kts 133°
2026-04-30 20:16 49.45552 1.29388 35188 ft 434 kts 133°
2026-04-30 20:17 49.41423 1.36231 35182 ft 434 kts 133°
2026-04-30 20:17 49.37335 1.42983 35189 ft 433 kts 133°
2026-04-30 20:18 49.33218 1.49773 35189 ft 432 kts 133°
2026-04-30 20:18 49.29111 1.56519 35188 ft 432 kts 133°
2026-04-30 20:19 49.24995 1.63253 35181 ft 432 kts 133°
2026-04-30 20:19 49.20907 1.69929 35174 ft 433 kts 133°
2026-04-30 20:20 49.16783 1.76655 35174 ft 433 kts 133°
2026-04-30 20:20 49.12658 1.83368 35181 ft 432 kts 133°
2026-04-30 20:21 49.08539 1.90041 35196 ft 432 kts 133°
2026-04-30 20:21 49.04420 1.96705 35200 ft 431 kts 133°
2026-04-30 20:22 49.00287 2.03372 35193 ft 431 kts 133°
2026-04-30 20:22 48.96154 2.10026 35188 ft 431 kts 133°
2026-04-30 20:23 48.92058 2.16623 35185 ft 431 kts 133°
2026-04-30 20:23 48.88627 2.22118 35177 ft 431 kts 133°
2026-04-30 20:24 48.85881 2.26508 35181 ft 431 kts 134°
2026-04-30 20:24 48.80468 2.35119 35183 ft 430 kts 134°
2026-04-30 20:25 48.74290 2.44928 35182 ft 430 kts 134°
2026-04-30 20:26 48.68158 2.54640 35181 ft 430 kts 134°
2026-04-30 20:26 48.61943 2.64422 35182 ft 430 kts 134°
2026-04-30 20:27 48.55466 2.79325 35178 ft 431 kts 105°
2026-04-30 20:28 48.54798 2.88345 35161 ft 434 kts 94°
2026-04-30 20:28 48.54492 2.97390 35170 ft 434 kts 95°
2026-04-30 20:30 48.53701 3.20200 35181 ft 434 kts 94°
2026-04-30 20:31 48.52593 3.47118 35655 ft 403 kts 94°
2026-04-30 20:32 48.52181 3.60243 35194 ft 429 kts 94°
2026-04-30 20:32 48.51866 3.69249 35204 ft 432 kts 94°
2026-04-30 20:33 48.51370 3.81321 35209 ft 433 kts 95°
2026-04-30 20:34 48.50791 3.94872 35209 ft 433 kts 95°
2026-04-30 20:35 48.49377 4.08261 35202 ft 431 kts 106°
2026-04-30 20:35 48.46984 4.21346 35201 ft 431 kts 106°
2026-04-30 20:36 48.45406 4.30024 35205 ft 432 kts 106°
2026-04-30 20:37 48.43012 4.43130 35204 ft 432 kts 105°
2026-04-30 20:37 48.41403 4.51796 35214 ft 432 kts 105°
2026-04-30 20:38 48.39775 4.60525 35214 ft 432 kts 105°
2026-04-30 20:38 48.38156 4.69180 35213 ft 432 kts 106°
2026-04-30 20:39 48.35703 4.82236 35214 ft 432 kts 105°
2026-04-30 20:40 48.33220 4.95290 35219 ft 433 kts 105°
2026-04-30 20:40 48.31562 5.04002 35231 ft 433 kts 105°
2026-04-30 20:41 48.29083 5.17013 35235 ft 433 kts 104°
2026-04-30 20:41 48.27699 5.25821 35233 ft 433 kts 101°
2026-04-30 20:42 48.26484 5.34700 35239 ft 433 kts 101°
2026-04-30 20:43 48.24582 5.47912 35237 ft 433 kts 102°
2026-04-30 20:43 48.23240 5.56720 35237 ft 433 kts 102°
2026-04-30 20:44 48.21227 5.69879 35245 ft 433 kts 102°
2026-04-30 20:45 48.18532 5.87490 35246 ft 433 kts 102°
2026-04-30 20:45 48.17173 5.96277 35247 ft 433 kts 102°
2026-04-30 20:46 48.14440 6.13884 35254 ft 433 kts 102°
2026-04-30 20:47 48.12365 6.27043 35250 ft 433 kts 102°
2026-04-30 20:48 48.10297 6.40130 35248 ft 433 kts 102°
2026-04-30 20:48 48.08895 6.48911 35247 ft 433 kts 102°
2026-04-30 20:49 48.07498 6.57691 35247 ft 433 kts 102°
2026-04-30 20:50 48.05389 6.70775 35250 ft 433 kts 102°
2026-04-30 20:50 48.03965 6.79535 35248 ft 433 kts 102°
2026-04-30 20:51 48.02538 6.88273 35263 ft 433 kts 101°
2026-04-30 20:51 48.00378 7.01406 35270 ft 433 kts 102°
2026-04-30 20:52 47.98945 7.10096 35271 ft 434 kts 102°
2026-04-30 20:53 47.96760 7.23214 35281 ft 434 kts 101°
2026-04-30 20:53 47.95293 7.31974 35270 ft 434 kts 101°
2026-04-30 20:54 47.93090 7.45059 35267 ft 435 kts 101°
2026-04-30 20:55 47.90829 7.58204 35265 ft 437 kts 104°
2026-04-30 20:55 47.88715 7.66729 35287 ft 438 kts 107°
2026-04-30 20:56 47.85506 7.79380 35298 ft 436 kts 107°
2026-04-30 20:57 47.82274 7.92083 35292 ft 436 kts 107°
2026-04-30 20:57 47.80126 8.00467 35305 ft 436 kts 107°
2026-04-30 20:58 47.76883 8.13118 35313 ft 436 kts 107°
2026-04-30 20:58 47.74717 8.21493 35308 ft 436 kts 108°
2026-04-30 20:59 47.71440 8.34147 35308 ft 436 kts 108°
2026-04-30 21:00 47.68343 8.51343 35310 ft 429 kts 93°
2026-04-30 21:01 47.67280 8.64512 35301 ft 430 kts 93°
2026-04-30 21:02 47.66199 8.77760 35300 ft 430 kts 94°
2026-04-30 21:02 47.65473 8.86532 35319 ft 431 kts 93°
2026-04-30 21:03 47.64741 8.95359 35316 ft 431 kts 93°
2026-04-30 21:03 47.64001 9.04185 35314 ft 431 kts 93°
2026-04-30 21:04 47.63256 9.12959 35309 ft 431 kts 93°
2026-04-30 21:04 47.62119 9.26199 35323 ft 430 kts 93°
2026-04-30 21:05 47.61357 9.34949 35317 ft 429 kts 93°
2026-04-30 21:05 47.60580 9.43727 35322 ft 429 kts 93°
2026-04-30 21:06 47.59808 9.52497 35321 ft 429 kts 93°
2026-04-30 21:06 47.59021 9.61273 35310 ft 428 kts 93°
2026-04-30 21:07 47.58337 9.69955 35305 ft 426 kts 89°
2026-04-30 21:07 47.58013 9.78700 35305 ft 424 kts 87°
2026-04-30 21:08 47.57773 9.87409 35295 ft 423 kts 88°
2026-04-30 21:08 47.57446 9.96139 35293 ft 423 kts 89°
2026-04-30 21:09 47.57064 10.04798 35287 ft 423 kts 89°
2026-04-30 21:09 47.56680 10.13490 35320 ft 422 kts 88°
2026-04-30 21:10 47.56305 10.22147 35249 ft 420 kts 88°
2026-04-30 21:10 47.56116 10.26482 34410 ft 424 kts 88°
2026-04-30 21:10 47.55924 10.30857 33443 ft 427 kts 89°
2026-04-30 21:11 47.55727 10.35266 32503 ft 429 kts 89°
2026-04-30 21:11 47.55526 10.39699 31559 ft 431 kts 89°
2026-04-30 21:11 47.55321 10.44138 30642 ft 433 kts 89°
2026-04-30 21:11 47.55153 10.48587 29535 ft 433 kts 85°
2026-04-30 21:12 47.55373 10.53020 28417 ft 431 kts 77°
2026-04-30 21:12 47.56068 10.57325 27244 ft 430 kts 69°
2026-04-30 21:12 47.57225 10.61418 25963 ft 432 kts 60°
2026-04-30 21:12 47.58749 10.65283 24600 ft 439 kts 57°
2026-04-30 21:13 47.60336 10.69188 23417 ft 442 kts 57°
2026-04-30 21:13 47.61901 10.73072 22546 ft 436 kts 57°
2026-04-30 21:13 47.63445 10.76923 21696 ft 431 kts 58°
2026-04-30 21:13 47.64973 10.80752 20854 ft 426 kts 58°
2026-04-30 21:14 47.66469 10.84503 20055 ft 422 kts 58°
2026-04-30 21:14 47.68070 10.88075 19287 ft 417 kts 51°
2026-04-30 21:14 47.70049 10.91180 18532 ft 413 kts 41°
2026-04-30 21:14 47.72281 10.93847 17696 ft 409 kts 39°
2026-04-30 21:15 47.74503 10.96464 16906 ft 406 kts 39°
2026-04-30 21:15 47.76707 10.99070 16138 ft 403 kts 39°
2026-04-30 21:15 47.78883 11.01651 15419 ft 399 kts 39°
2026-04-30 21:15 47.80316 11.03362 14949 ft 396 kts 40°
2026-04-30 21:16 47.82459 11.05927 14273 ft 392 kts 40°
2026-04-30 21:16 47.84533 11.08408 12989 ft 382 kts 40°
2026-04-30 21:16 47.87265 11.11669 11860 ft 370 kts 40°
2026-04-30 21:16 47.88608 11.13270 11692 ft 360 kts 40°
2026-04-30 21:17 47.90521 11.15545 11533 ft 330 kts 40°
2026-04-30 21:17 47.92206 11.17543 11406 ft 303 kts 40°
2026-04-30 21:17 47.93823 11.19467 11295 ft 291 kts 40°
2026-04-30 21:17 47.95375 11.21316 11152 ft 280 kts 40°
2026-04-30 21:18 47.96886 11.23116 10915 ft 276 kts 40°
2026-04-30 21:18 47.98382 11.24900 10673 ft 274 kts 40°
2026-04-30 21:18 47.99869 11.26678 10429 ft 274 kts 40°
2026-04-30 21:18 48.01355 11.28457 10259 ft 273 kts 41°
2026-04-30 21:19 48.02840 11.30238 10109 ft 274 kts 41°
2026-04-30 21:19 48.04322 11.32017 9985 ft 273 kts 41°
2026-04-30 21:19 48.05775 11.33828 9847 ft 272 kts 47°
2026-04-30 21:19 48.06942 11.36055 9712 ft 270 kts 61°
2026-04-30 21:20 48.07692 11.38610 9578 ft 269 kts 71°
2026-04-30 21:20 48.08324 11.41242 9447 ft 269 kts 70°
2026-04-30 21:20 48.08952 11.43839 9319 ft 268 kts 70°
2026-04-30 21:20 48.09585 11.46464 9189 ft 268 kts 70°
2026-04-30 21:21 48.10217 11.49083 9062 ft 268 kts 70°
2026-04-30 21:21 48.10852 11.51701 8935 ft 267 kts 70°
2026-04-30 21:21 48.12112 11.56930 8672 ft 266 kts 71°
2026-04-30 21:22 48.12740 11.59540 8594 ft 266 kts 70°
2026-04-30 21:22 48.14615 11.67349 8134 ft 265 kts 70°
2026-04-30 21:23 48.15242 11.69954 7945 ft 264 kts 70°
2026-04-30 21:23 48.16035 11.72425 7769 ft 265 kts 53°
2026-04-30 21:23 48.19190 11.74933 7408 ft 272 kts
2026-04-30 21:24 48.21057 11.74410 7212 ft 278 kts 338°
2026-04-30 21:24 48.22599 11.72659 7025 ft 282 kts 311°
2026-04-30 21:24 48.23802 11.70321 6828 ft 283 kts 309°
2026-04-30 21:24 48.24985 11.67963 6606 ft 283 kts 309°
2026-04-30 21:25 48.27353 11.63221 6217 ft 284 kts 309°
2026-04-30 21:25 48.28543 11.60845 6042 ft 280 kts 309°
2026-04-30 21:25 48.29690 11.58557 5909 ft 268 kts 309°
2026-04-30 21:26 48.31830 11.54275 5657 ft 249 kts 309°
2026-04-30 21:26 48.32868 11.52203 5528 ft 247 kts 309°
2026-04-30 21:27 48.35240 11.48631 5200 ft 236 kts 349°
2026-04-30 21:27 48.36758 11.48700 4955 ft 216 kts 32°
2026-04-30 21:27 48.37752 11.50224 4756 ft 201 kts 75°
2026-04-30 21:28 48.36934 11.54027 4349 ft 205 kts 120°
2026-04-30 21:28 48.36264 11.55917 3942 ft 201 kts 110°
2026-04-30 21:28 48.35571 11.59723 3491 ft 173 kts 98°
2026-04-30 21:29 48.35438 11.61425 3322 ft 154 kts 94°
2026-04-30 21:29 48.35467 11.65810 2959 ft 136 kts 88°
2026-04-30 21:30 48.35653 11.68630 2607 ft 136 kts 85°
2026-04-30 21:31 48.35969 11.72847 2015 ft 134 kts 84°
2026-04-30 21:31 48.36202 11.75693 1639 ft 137 kts 83°
2026-04-30 21:32 48.36397 11.78396 1462 ft 92 kts 82°
2026-04-30 21:32 48.36447 11.78964 1465 ft 37 kts 84°
2026-04-30 21:32 48.36439 11.79287 1470 ft 30 kts 105°
2026-04-30 21:32 48.36358 11.79578 1465 ft 25 kts 112°
2026-04-30 21:33 48.36291 11.79785 1462 ft 12 kts 143°
2026-04-30 21:33 48.36223 11.79583 1468 ft 20 kts 264°
2026-04-30 21:33 48.36204 11.79353 1463 ft 24 kts 263°
2026-04-30 21:34 48.36184 11.79094 1468 ft 26 kts 263°
2026-04-30 21:34 48.36139 11.78476 1464 ft 33 kts 262°
2026-04-30 21:34 48.36109 11.78119 1467 ft 35 kts 263°
2026-04-30 21:35 48.36082 11.77755 1464 ft 27 kts 264°
2026-04-30 21:35 48.36028 11.77664 1460 ft 10 kts 174°
2026-04-30 21:35 48.35964 11.77674 1464 ft 9 kts 174°
2026-04-30 21:35 48.35876 11.77686 1467 ft 16 kts 175°
2026-04-30 21:36 48.35747 11.77711 1463 ft 22 kts 172°
2026-04-30 21:36 48.35552 11.77744 1466 ft 36 kts 173°
2026-04-30 21:37 48.34926 11.77854 1466 ft 31 kts 173°
2026-04-30 21:37 48.34714 11.77890 1466 ft 22 kts 174°
2026-04-30 21:37 48.34655 11.77812 1467 ft 11 kts 263°
2026-04-30 21:37 48.34635 11.77558 1458 ft 37 kts 263°
2026-04-30 21:38 48.34603 11.77123 1466 ft 43 kts 263°
2026-04-30 21:38 48.34579 11.76711 1463 ft 25 kts 283°
2026-04-30 21:38 48.34646 11.76666 1463 ft 21 kts 352°
2026-04-30 21:38 48.34733 11.76503 1464 ft 25 kts 266°
2026-04-30 21:39 48.34714 11.76237 1466 ft 26 kts 263°
2026-04-30 21:39 48.34693 11.75972 1458 ft 10 kts 250°
2026-04-30 21:39 48.34638 11.75971 1465 ft 8 kts 172°